Location: Unspecified
(0.0000°N, 0.0000°E)
Time: 08:16:19
(UTC+02:00)

ISS - All Passes

Search period start: 21 August 2014 00:00
Search period end: 31 August 2014 00:00
Orbit: 413 x 419 km, 51.6° (Epoch: 20 August)

Date Brightness Start Highest point End Pass type
(mag) Time Alt. Az. Time Alt. Az. Time Alt. Az.
21 Aug - 01:05:01 10° NNW 01:08:19 64° NE 01:11:38 10° SE night (unlit)
21 Aug - 12:41:02 10° SSW 12:44:10 38° SE 12:47:16 10° NE daylight
22 Aug - 00:17:03 10° N 00:19:52 25° NE 00:22:41 10° ESE night (unlit)
22 Aug - 01:56:17 10° SW 01:56:25 10° SW 01:56:33 10° SW night (unlit)
22 Aug - 11:53:27 10° SSE 11:55:41 17° SE 11:57:54 10° E daylight
22 Aug - 13:30:16 10° W 13:32:13 15° NW 13:34:09 10° NNW daylight
22 Aug - 23:30:15 10° NE 23:31:22 11° NE 23:32:29 10° ENE night (unlit)
23 Aug - 01:05:14 10° WNW 01:07:54 22° SW 01:10:35 10° S night (unlit)
23 Aug - 12:40:40 10° WSW 12:43:43 33° NW 12:46:44 10° NNE daylight
24 Aug - 00:16:08 10° NW 00:19:23 54° SW 00:22:40 10° SSE night (unlit)
24 Aug - 11:51:53 10° SW 11:55:12 90° N 11:58:31 10° NE daylight
24 Aug - 23:27:37 10° NNW 23:30:52 54° NE 23:34:09 10° SE night (unlit)
25 Aug - 11:03:38 10° SSW 11:06:41 33° SE 11:09:42 10° ENE daylight
25 Aug - 22:39:41 10° N 22:42:20 22° NE 22:45:00 10° ESE night (unlit)
26 Aug - 00:17:42 10° WSW 00:18:52 11° SW 00:20:02 10° SSW night (unlit)
26 Aug - 10:16:08 10° SSE 10:18:06 15° SE 10:20:04 10° E daylight
26 Aug - 11:52:24 10° W 11:54:38 17° NW 11:56:51 10° NNW daylight
26 Aug - 23:27:28 10° WNW 23:30:16 25° SW 23:33:06 10° S night (unlit)
27 Aug - 11:02:55 10° SW 11:06:03 39° NW 11:09:10 10° NNE daylight
27 Aug - 22:38:24 10° NW 22:41:41 65° SW 22:45:00 10° SSE night (unlit)
28 Aug - 10:14:08 10° SSW 10:17:28 77° SE 10:20:46 10° NE daylight
28 Aug - 21:49:53 10° NNW 21:53:05 45° NE 21:56:18 10° SE visible
29 Aug - 09:25:54 10° S 09:28:51 29° SE 09:31:46 10° ENE daylight
29 Aug - 21:02:00 10° N 21:04:28 19° NE 21:06:55 10° ESE visible
29 Aug - 22:39:20 10° W 22:40:59 13° SW 22:42:38 10° SSW visible
30 Aug - 08:38:34 10° SSE 08:40:11 13° SE 08:41:48 10° E daylight
30 Aug - 10:14:15 10° WSW 10:16:43 19° NW 10:19:10 10° N daylight
30 Aug - 21:49:22 10° WNW 21:52:19 29° SW 21:55:16 10° S visible
